Home > Time Zones > World Clock > Weather > Japan > Osaka > Past weeks

Flag for Japan Weather past 2 weeks in Osaka, Japan

52 °F

Passing clouds.

Feels Like: 47 °F
Forecast: 42 / 55 °F
Wind: 15 mph from Northwest

Location: Kansai International Airport

Current Time: Nov 28, 2015 at 12:31:34 AM

Latest Report: Nov 28, 2015 at 12:00 AM

Visibility: N/A

Pressure: 30.21 "Hg

Humidity: 44%

Dew point: 30 °F

Location of OsakaLocation

Historic Weather in Osaka — Graph


Osaka temperature yesterday

Maximum temperature yesterday: 52 °F (at 2:30 PM)
Minimum temperature yesterday: 46 °F (at 1:30 AM)
Average temperature yesterday: 49 °F

Past Weeks' High & Low Weather Summary

High72 °F (Nov 15, 2:00 PM)100% (Nov 14, 5:30 AM)30.36 "Hg (Nov 14, 5:30 AM)
Low46 °F (Nov 26, 8:30 PM)38% (Nov 27, 6:00 PM)29.74 "Hg (Nov 26, 12:48 PM)
Average60 °F76%30.07 "Hg
* Reported Nov 12 11:00 PM — Nov 27 11:30 PM, Osaka, Weather by CustomWeather, © 2015

Note: Actual official high and low records may vary slightly from our data, if they occured in-between our weather recording intervals... More about our weather records


Osaka weather history for previous 24 hours

Time TempWeatherWind HumidityBarometerVisibility
11:30 PM
Fri, Nov 27
52 °FPassing clouds.14 mph50%30.21 "HgN/A
11:00 PM50 °FPassing clouds.17 mph47%30.21 "HgN/A
10:30 PM52 °FPassing clouds.14 mph44%30.24 "HgN/A
10:00 PM52 °FPassing clouds.16 mph44%30.21 "HgN/A
9:30 PM52 °FPassing clouds.17 mph41%30.21 "HgN/A
9:00 PM50 °FPassing clouds.16 mph43%30.21 "HgN/A
8:30 PM52 °FPassing clouds.17 mph41%30.21 "HgN/A
8:00 PM52 °FPassing clouds.16 mph44%30.21 "HgN/A
7:30 PM52 °FPassing clouds.17 mph44%30.21 "HgN/A
7:00 PM52 °FPassing clouds.18 mph44%30.18 "HgN/A
6:30 PM52 °FPassing clouds.16 mph41%30.18 "HgN/A
6:00 PM52 °FPassing clouds.18 mph38%30.15 "HgN/A
5:30 PM52 °FPassing clouds.20 mph41%30.15 "HgN/A
5:00 PM52 °FPassing clouds.20 mph47%30.12 "HgN/A
3:30 PM52 °FScattered clouds.20 mph44%30.09 "HgN/A
3:00 PM52 °FScattered clouds.20 mph44%30.09 "HgN/A
2:30 PM52 °FPartly sunny.16 mph44%30.07 "HgN/A
2:00 PM50 °FPartly sunny.12 mph47%30.07 "HgN/A
1:30 PM50 °FPartly sunny.16 mph54%30.07 "HgN/A
1:00 PM50 °FPartly sunny.20 mph54%30.07 "HgN/A
12:30 PM48 °FPartly sunny.21 mph54%30.04 "HgN/A
12:00 PM50 °FPartly sunny.21 mph54%30.04 "HgN/A
11:30 AM50 °FPartly sunny.21 mph54%30.07 "HgN/A
11:00 AM50 °FPartly sunny.23 mph50%30.07 "HgN/A
10:30 AM48 °FPassing clouds.25 mph46%30.07 "HgN/A
10:00 AM48 °FScattered clouds.28 mph43%30.04 "HgN/A
9:30 AM46 °FScattered clouds.26 mph53%30.04 "HgN/A
9:00 AM48 °FPartly sunny.28 mph50%30.01 "HgN/A
8:30 AM46 °FScattered clouds.21 mph53%30.01 "HgN/A
7:30 AM46 °FBroken clouds.22 mph53%29.98 "HgN/A
7:00 AM46 °FScattered showers. Partly sunny.18 mph53%29.95 "HgN/A
6:30 AM46 °FPassing clouds.21 mph50%29.95 "HgN/A
5:30 AM46 °FPassing clouds.24 mph57%29.92 "HgN/A
5:00 AM46 °FSprinkles. Passing clouds.23 mph53%29.89 "HgN/A
4:30 AM46 °FSprinkles. Passing clouds.23 mph53%29.89 "HgN/A
4:02 AM46 °FSprinkles. Partly cloudy.21 mph62%29.89 "HgN/A
4:00 AM46 °FSprinkles. Partly cloudy.21 mph62%29.89 "HgN/A
3:30 AM46 °FPassing clouds.24 mph53%29.89 "HgN/A
3:00 AM48 °FPartly cloudy.25 mph54%29.89 "HgN/A
2:30 AM48 °FPassing clouds.25 mph54%29.86 "HgN/A
2:00 AM48 °FPassing clouds.26 mph54%29.86 "HgN/A
1:30 AM46 °FSprinkles. Passing clouds.23 mph71%29.86 "HgN/A
1:00 AM50 °FScattered showers. Passing clouds.22 mph62%29.86 "HgN/A
12:30 AM48 °FPassing clouds.21 mph66%29.86 "HgN/A
12:00 AM48 °FPassing clouds.21 mph62%29.86 "HgN/A
Weather by CustomWeather, © 2015

See weather overviewHow to use our weather pages